Location: Nitra
(0.0000°N, 18.0833°E)
Time: 08:47:33
(UTC+01:00)

Cosmos 1741 Rocket - Pass Details

Date: 25 September 2022
Orbit: 761 x 781 km, 74.0° (Epoch: 28 November)

Event Time Altitude Azimuth Distance (km) Brightness Sun altitude
Rises 19:31:05 0° 191° (SSW) 3,265 7.4 -13.0°
Reaches altitude 10° 19:33:28 10° 191° (S) 2,334 6.7 -13.5°
Maximum altitude 19:38:47 85° 103° (ESE) 786 4.0 -14.9°
Drops below altitude 10° 19:44:04 10° 14° (NNE) 2,319 6.3 -16.2°
Sets 19:46:26 0° 13° (NNE) 3,241 7.1 -16.8°
